Regional Weather Roundup
Issued by NWS

Home | Current Version | Previous Version | Text Only | Print | Product List | Glossary Off
Versions: 1 2 3 4 5 6 7 8 9 10 11 12 13 14 15 16 17 18 19 20 21 22 23 24 25 26 27 28 29 30 31 32 33 34 35 36 37 38 39 40 41 42 43 44 45 46 47 48 49 50

000
ASUS44 KMEG 221910
RWRTN
TENNESSEE HOURLY STATE WEATHER ROUNDUP
NATIONAL WEATHER SERVICE MEMPHIS TN
100 PM CST WED NOV 22 2017

TNZ002-004-019-021-049-052-054-088>092-222000-
WEST TENNESSEE

CITY           SKY/WX    TMP DP  RH WIND       PRES   REMARKS
MEMPHIS INTL   SUNNY     47  25  42 NE8       30.28F
NWS MEMPHIS      N/A     46 N/A N/A MISG        N/A
JACKSON        SUNNY     45  25  45 N10       30.27F
DYERSBURG      SUNNY     45  24  43 N10       30.30F
SOMERVILLE     SUNNY     45  25  45 VRB6G12   30.26F
COVINGTON      SUNNY     45  25  45 N8        30.29F
UNION CITY     SUNNY     43  23  45 N8        30.28F
BOLIVAR        SUNNY     46  25  42 NW8       30.25F
PARIS          SUNNY     43  23  45 VRB3G13   30.26F
HUNTINGDON     SUNNY     45  23  42 NE10      30.26F
LEXINGTON      SUNNY     45  23  42 N8        30.25F
SELMER         SUNNY     46  23  39 NE7       30.24F
SAVANNAH       SUNNY     46  25  42 N9        30.24F
$$

TNZ008-025-027-028-033-062-065-066-222000-
NORTH MIDDLE TENNESSEE

CITY           SKY/WX    TMP DP  RH WIND       PRES   REMARKS
NASHVILLE      PTSUNNY   48  25  40 N10       30.24F
PORTLAND       SUNNY     43  25  49 N8G15     30.24F
CLARKSVILLE    SUNNY     44  24  45 N8        30.28F
SMYRNA         SUNNY     47  26  44 N10       30.24F
COOKEVILLE     SUNNY     46  27  46 N9        30.19F
GALLATIN       SUNNY     45  25  45 NW8       30.27F
CROSSVILLE     SUNNY     47  24  40 N14       30.15F
$$

TNZ061-075-076-078-094-096-097-222000-
SOUTH MIDDLE TENNESSEE

CITY           SKY/WX    TMP DP  RH WIND       PRES   REMARKS
FAYETTEVILLE   SUNNY     46  28  49 N10G17    30.18F
TULLAHOMA      SUNNY     48  28  46 N6G15     30.17F
WINCHESTER     SUNNY     46  28  49 N10       30.17F
MCMINNVILLE    SUNNY     48  27  43 N12       30.18F
COLUMBIA       SUNNY     46  25  42 NE9       30.20F
SHELBYVILLE    SUNNY     46  28  49 N15       30.20F
$$

TNZ017-018-042-046-047-222000-
NORTHEAST TENNESSEE

CITY           SKY/WX    TMP DP  RH WIND       PRES   REMARKS
TRI CITIES     MOSUNNY   51  32  48 CALM      30.12F
ELIZABETHTON   SUNNY     52  30  43 NW9       30.12S
$$

TNZ012-013-036-069-073-074-222000-
CENTRAL EAST TENNESSEE

CITY           SKY/WX    TMP DP  RH WIND       PRES   REMARKS
KNOXVILLE      MOSUNNY   52  32  46 N13       30.14F
OAK RIDGE      SUNNY     52  29  41 E9        30.16F
DOWNTOWN KNOXV SUNNY     54  34  47 CALM      30.16F
GATLINBURG     SUNNY     54  30  40 NE7       30.14F
MORRISTOWN     SUNNY     52  32  46 N9        30.14S
JACKSBORO      SUNNY     48  27  43 NE9       30.20F
$$

TNZ083-085-099-222000-
SOUTHEAST TENNESSEE

CITY           SKY/WX    TMP DP  RH WIND       PRES   REMARKS
CHATTANOOGA    MOSUNNY   55  31  39 NE9       30.14F
DAYTON         CLEAR     54  36  50 VRB6G15   30.14F
$$

SKY/WX REPORTED AS FAIR MEANS FEW OR NO CLOUDS BELOW
12 THOUSAND FEET.





USA.gov is the U.S. government's official web portal to all federal, state and local government web resources and services.